Regional Weather Roundup
Issued by NWS

Home | Current Version | Previous Version | Graphics & Text | Print | Product List | Glossary On
Versions: 1 2 3 4 5 6 7 8 9 10 11 12 13 14 15 16 17 18 19 20 21 22 23 24 25 26 27 28 29 30 31 32 33 34 35 36 37 38 39 40 41 42 43 44 45 46 47 48 49 50
000
ASUS43 KDTX 300110
RWRMI
MICHIGAN HOURLY REGIONAL WEATHER ROUNDUP
NATIONAL WEATHER SERVICE DETROIT/PONTIAC MI
900 PM EDT MON JUN 29 2015

NOTE: "FAIR" INDICATES FEW OR NO CLOUDS BELOW 12,000 FEET WITH NO
SIGNIFICANT WEATHER AND/OR OBSTRUCTION TO VISIBILITY.

MIZ047>049-052>055-059>063-066>070-074>076-081>083-300200-
SOUTHEAST LOWER MICHIGAN

CITY           SKY/WX    TMP DP  RH WIND       PRES   REMARKS
ADRIAN         CLOUDY    65  57  75 SE5       29.84S
ALMA           PTCLDY    69  58  65 S3        29.82S
ANN ARBOR      CLOUDY    66  58  75 SE3       29.84S
BAD AXE        CLEAR     68  55  61 S6        29.85R
CARO           CLEAR     68  57  67 SE3       29.83S
DETROIT CITY   PTCLDY    68  55  63 S8        29.85R
DETROIT        CLOUDY    67  57  70 SE6       29.85S
FLINT          PTCLDY    69  56  62 S5        29.83S
GROSSE ILE       N/A     66  61  82 S10       29.84S
HILLSDALE      CLOUDY    63  62  96 CALM      29.84F
HOWELL         PTCLDY    66  55  67 S7        29.84S

CITY           SKY/WX    TMP DP  RH WIND       PRES   REMARKS
JACKSON        CLOUDY    65  58  78 SE5       29.84S
LAMBERTVILLE   CLOUDY    66  57  71 SE6       29.84F
LANSING        CLEAR     68  55  63 S10       29.83S
LAPEER         FAIR      66  53  62 CALM      29.85S
MASON          PTCLDY    64  55  74 S3        29.84S
MONROE         CLOUDY    66  57  73 SE8       29.83F
MT. CLEMENS    PTCLDY    65  58  78 SE8       29.83F
PONTIAC        PTCLDY    67  54  63 S9        29.84R
PORT HOPE        N/A     72  58  61 VRB3      29.82R
PORT HURON     PTCLDY    63  59  88 CALM      29.86S
TRI CITIES     CLEAR     71  57  61 S6        29.83S
MIDLAND        FAIR      71  56  60 S5        29.82R
TROY           PTCLDY    70  55  59 S6        29.86S
SAGINAW HB     CLEAR     70  57  64 S3        29.82S
$$
MIZ043>046-050>051-056>058-064>065-071>073-077>080-300200-
SOUTHWEST LOWER MICHIGAN

CITY           SKY/WX    TMP DP  RH WIND       PRES   REMARKS
BATTLE CREEK   CLOUDY    67  57  70 S9        29.84S
BENTON HARBOR  CLOUDY    68  60  75 SE6       29.81S
BIG RAPIDS     PTCLDY    69  57  66 CALM      29.82R
COLDWATER      CLOUDY    64  57  80 SE5       29.84R
FREMONT        FAIR      69  59  72 SW6       29.81S
HOLLAND        PTCLDY    68  59  73 SE7       29.82S
GRAND RAPIDS   PTCLDY    69  58  67 S8        29.82R
IONIA          FAIR      70  56  61 S6        29.82S
KALAMAZOO      MOCLDY    66  57  72 S6        29.83S
LUDINGTON      CLEAR     68  62  79 SW7       29.82R
MARSHALL       CLOUDY    65  58  76 S3        29.83F
MOUNT PLEASANT PTCLDY    71  56  59 S5        29.82R
MUSKEGON       PTCLDY    67  60  78 S5        29.81S
SOUTH HAVEN    CLOUDY    67  60  80 SE3       29.82R
$$
MIZ016>042-300200-
NORTHERN LOWER MICHIGAN

CITY           SKY/WX    TMP DP  RH WIND       PRES   REMARKS
ALPENA         CLEAR     71  54  54 S10       29.79S
BEAVER ISLAND  CLEAR     63  52  67 SW6       29.79S
BELLAIRE       PTCLDY    70  57  63 S6        29.80S
CADILLAC       PTCLDY    66  58  74 SW3       29.83R
CHARLEVOIX     MOCLDY    67  55  65 SW3       29.82F
FRANKFORT      CLEAR     69  57  67 SW5       29.80S
GAYLORD        CLOUDY    72  51  47 W8        29.82R
GRAYLING       CLOUDY    68  56  64 W5        29.84R
HARBOR SPRINGS PTCLDY    64  54  69 W5        29.81R
HOUGHTON LAKE  PTCLDY    68  55  63 S6        29.84R
MANISTEE       CLEAR    N/A N/A N/A SW5       29.81R
OSCODA         CLEAR     72  57  59 S7        29.81S
PELLSTON       MOCLDY    73  52  47 W5        29.80R
ROGERS CITY    CLOUDY    65  58  78 CALM      29.79S
TRAVERSE CITY  MOCLDY    67  61  81 CALM      29.79R
$$
MIZ007>008-015-300200-
EASTERN UPPER MICHIGAN

CITY           SKY/WX    TMP DP  RH WIND       PRES   REMARKS
KINROSS        CLEAR     73  50  43 CALM      29.78S
MACKINAC ISLAN CLEAR     67  51  56 S3        29.78S
NEWBERRY       PTCLDY    68  55  64 S6        29.76S
S. S. MARIE    CLEAR     72  46  39 NW3       29.77S
MUNISING         N/A     64  60  87 CALM      29.74S
$$
MIZ004>006-011>014-085-300200-
CENTRAL UPPER MICHIGAN

CITY           SKY/WX    TMP DP  RH WIND       PRES   REMARKS
MANISTIQUE     PTCLDY    61  56  83 S3        29.77R
ESCANABA       CLOUDY    70  57  64 SW6       29.75R
MENOMINEE      CLOUDY    66  61  82 SW3       29.75S
SAWYER-GWINN   CLOUDY    61  59  94 W6        29.77R
$$
MIZ001>003-009>011-084-300200-
WESTERN UPPER MICHIGAN

CITY           SKY/WX    TMP DP  RH WIND       PRES   REMARKS
IRON MOUNTAIN  LGT RAIN  62  60  93 CALM      29.78R
HOUGHTON       CLOUDY    61  57  87 N12       29.77R
COPPER HARBOR    N/A     51  50  96 N7        29.77R
$$

ABBREVIATIONS USED IN REMARKS
   TC - TEMPERATURE IN CELSIUS
  WCI - WIND CHILL INDEX
   HX - HEAT INDEX
  VSB - VISIBILITY



USA.gov is the U.S. government's official web portal to all federal, state and local government web resources and services.